Location: Ingoldesthorpe
(52.8667°N, 0.5167°E)
Time: 06:03:18
(UTC+00:00)

Okean O Rocket - Pass Details

Date: 19 May 2025
Orbit: 614 x 636 km, 98.0° (Epoch: 18 June)

Event Time Altitude Azimuth Distance (km) Brightness Sun altitude
Rises 21:35:37 0° 208° (SSW) 2,907 4.7 -11.2°
Reaches altitude 10° 21:38:29 10° 229° (SW) 2,001 4.1 -11.4°
Maximum altitude 21:41:22 17° 271° (W) 1,577 4.1 -11.7°
Drops below altitude 10° 21:44:16 10° 313° (NW) 2,003 5.5 -11.9°
Sets 21:47:09 0° 333° (NNW) 2,911 7.2 -12.1°
